Location: Seattle
(47.6064°N, 122.3308°W)
Time: 05:18:11
(UTC-08:00)

S-56A Canister/Altair - Pass Details

Date: 26 November 2020
Orbit: 633 x 2499 km, 38.9° (Epoch: 23 January)

Event Time Altitude Azimuth Distance (km) Brightness Sun altitude
Rises 20:42:27 0° 236° (SW) 5,290 12.2 -43.0°
Reaches altitude 10° 20:46:40 10° 229° (SW) 3,988 11.4 -43.7°
Enters shadow 20:50:35 22° 216° (SW) 2,829 10.4 -44.3°
Maximum altitude 20:55:24 37° 168° (SSE) 1,894 - -45.1°
Drops below altitude 10° 21:01:28 10° 103° (ESE) 2,758 - -46.1°
Sets 21:03:52 0° 95° (E) 3,511 - -46.4°
